Other Public Products
Issued by NWS Grand Forks, ND

Home | Current Version | Previous Version | Graphics & Text | Print | Product List | Glossary On
Versions: 1 2 3 4 5 6 7 8 9 10 11 12 13 14 15 16 17 18 19 20 21 22 23 24 25 26 27 28 29 30 31 32 33 34 35 36 37 38 39 40 41 42 43 44 45 46 47 48 49 50
000
FPUS83 KFGF 030510
OPUFGF
PRAIRIE TO PINES WEATHER ROUNDUP
NATIONAL WEATHER SERVICE EASTERN NORTH DAKOTA/GRAND FORKS ND
1200 AM CDT FRI JUL 03 2015

 **SATELLITE DATA USED TO AUGMENT SKY COVER AT AUTOMATED STATIONS**
 *****  WEATHER ACROSS EASTERN NORTH DAKOTA  *****

CITY           SKY/WX    TMP DP  RH WIND       PRES   REMARKS
GRAND FORKS    CLOUDY    68  66  93 W7        29.89R
GRAND FORKS AF PTCLDY    66  64  94 W8        29.90S
GRAND CITY NWS   N/A     68 N/A N/A W3          N/A
BUXTON         NOT AVBL
DEVILS LAKE    CLEAR     66  61  82 W8        29.92S
FARGO          PTCLDY    66  55  67 S9        29.92F
WAHPETON ARPT  CLEAR     59  54  82 S6        29.96S
$$

 *****  WEATHER ACROSS CENTRAL AND WESTERN NORTH DAKOTA  *****

CITY           SKY/WX    TMP DP  RH WIND       PRES   REMARKS
JAMESTOWN      CLOUDY    66  63  90 NW3       29.95S
BISMARCK       CLOUDY    67  63  87 SW5       29.98F FOG
MINOT          CLOUDY    66  63  90 SW7       29.96F FOG
MINOT AFB      CLEAR     63  63 100 W8        29.96S
GARRISON         N/A     65  62  90 NW5       29.98F
WILLISTON      CLEAR     68  62  81 N3        30.02S
DICKINSON      CLEAR     64  59  83 E5        30.03S HAZE
HETTINGER      CLEAR     57  55  93 CALM      30.06S FOG
$$

 *****  OTHER OBSERVATIONS NORTHEAST NORTH DAKOTA  *****

CITY           SKY/WX    TMP DP  RH WIND       PRES   REMARKS
WALHALLA       FAIR      68  68 100 MISG      29.90S FOG
LANGDON        CLOUDY    64  63  94 NW7       29.94S FOG
CAVALIER       FAIR      68  66  94 W3        29.89S FOG
GRAFTON        FAIR      70  68  94 W8        29.89S FOG
CANDO          MOCLDY    63  63 100 NW7       29.95R FOG
FORT TOTTEN      N/A     65  63  94 CALM      29.95S
ROLLA          MOCLDY    64  64 100 NW8       29.97S FOG
RUGBY          NOT AVBL
 ***** THE ABOVE OBSERVATIONS ARE NON NWS ARE NOT QUALITY
        CONTROLLED AND MAY MIS-REPORT RAIN FOR SNOW...
$$

 *****  OTHER OBSERVATIONS SOUTHEAST NORTH DAKOTA *****

CITY           SKY/WX    TMP DP  RH WIND       PRES   REMARKS
COOPERSTOWN    NOT AVBL
VALLEY CITY    MOCLDY    66  66 100 SW8       29.94S
OAKES            N/A     63  63 100 SW7       29.96S
GWINNER          N/A     66  64  94 SW9       29.96S
SHEYENNE NWR     N/A     64  62  93 SW2       29.95S
BUFFALO        NOT AVBL
WYNDMERE       NOT AVBL
 ***** THE ABOVE OBSERVATIONS ARE NON NWS ARE NOT QUALITY
       CONTROLLED AND MAY MIS-REPORT RAIN FOR SNOW...
$$

  *****  WEATHER ACROSS NORTHERN MINNESOTA  *****

CITY           SKY/WX    TMP DP  RH WIND       PRES   REMARKS
FLAG ISLAND    CLEAR     70  63  78 SW12      29.84S
WARROAD        PTCLDY    66  61  82 SW6       29.87F
ROSEAU         CLEAR     66  61  82 SW6       29.87F
HALLOCK        CLEAR     68  64  88 NW6       29.87S FOG
THF RVR FALLS  PTCLDY    64  55  72 SW7       29.91R
HALSTAD        NOT AVBL
FOSSTON        PTCLDY    63  54  72 S9        29.93F
BAUDETTE       CLEAR     66  55  67 SW9       29.87S
WASKISH        PTCLDY    64  57  77 S5        29.90S
CROOKSTON      CLEAR     64  59  82 SW7       29.91S
$$
  *****  WEATHER ACROSS CENTRAL AND WEST MINNESOTA  *****

CITY           SKY/WX    TMP DP  RH WIND       PRES   REMARKS
BEMIDJI        PTCLDY    64  55  73 SW6       29.93S
PARK RAPIDS    CLEAR     61  52  72 SW3       29.95F
WADENA         CLEAR     55  52  88 S5        29.96F
DETROIT LAKES  CLEAR     64  54  68 SW6       29.96F
MOORHEAD       CLEAR     66  54  63 S8        29.94S
FERGUS FALLS   PTCLDY    63  55  77 S6        29.96F
ELBOW LAKE     FAIR      61  55  81 S7        29.98S
MORRIS MN      CLEAR     61  54  77 S3        29.98S
STAPLES        CLEAR     55  54  94 S5        29.97F
WHEATON        CLEAR     61  54  77 S6        29.99R
$$
  *****  WEATHER ELSEWHERE ACROSS MINNESOTA  *****

CITY           SKY/WX    TMP DP  RH WIND       PRES   REMARKS
DULUTH         PTCLDY    64  54  69 W8        29.94F
INTRNTL FALLS  CLOUDY    68  57  68 SW7       29.87S
ELY            MOCLDY    64  57  77 SW3       29.91S
CLOQUET        PTCLDY    63  52  67 SW6       29.95S
BRAINERD       CLEAR     57  55  93 CALM      29.97F
HIBBING        CLEAR     61  57  87 SW3       29.92F
ALEXANDRIA     CLEAR     60  54  80 S3        30.00F
SAINT CLOUD    CLEAR     57  55  93 CALM      29.98F
MINNEAPOLIS    CLEAR     69  55  60 CALM      29.98F
$$

  *****  WEATHER ACROSS SOUTH DAKOTA  *****

CITY           SKY/WX    TMP DP  RH WIND       PRES   REMARKS
SIOUX FALLS    CLEAR     60  58  92 CALM      30.01S
BROOKINGS      CLEAR     61  54  77 S5        30.03S
WATERTOWN      CLEAR     58  53  84 W6        30.00S
HURON          MOCLDY    63  59  87 S5        29.99S
SISSETON         N/A     59  56  89 SW6       29.96S
ABERDEEN       CLEAR     63  60  90 S6        29.98S
MITCHELL       CLEAR     61  58  90 SE5       30.00S
PIERRE         CLEAR     65  63  93 SE3       29.99R
MOBRIDGE       CLEAR     66  65  96 CALM      29.97S
RAPID CITY     MOCLDY    63  58  83 N6        30.10S
$$

  *****  SOME WEATHER IN NEARBY STATES *****

CITY           SKY/WX    TMP DP  RH WIND       PRES   REMARKS
GLASGOW MT     CLEAR     68  55  63 NE8       30.03S HAZE
GREAT FALLS MT MOCLDY    74  49  41 E8        30.06R
CHEYENNE WY    PTCLDY    64  53  67 SW5       30.26S
SCOTTSBLUFF NE MOCLDY    69  61  75 CALM      30.14R
OMAHA NE       CLOUDY    65  57  75 E3        29.99R
DES MOINES IA  MOCLDY    64  55  72 CALM      29.99R
DAVENPORT IA   CLOUDY    61  56  83 NE6       29.98R
CHICAGO IL     CLOUDY    57  48  72 N5        30.00S
EAU CLAIRE WI  CLEAR     59  55  87 CALM      29.98S
LA CROSSE WI   PTCLDY    61  56  83 E7        29.99S
$$

  *****  SOME NATIONAL WEATHER *****

CITY           SKY/WX    TMP DP  RH WIND       PRES   REMARKS
LA GUARDIA NY  MOCLDY    72  62  71 SW5       29.88R
RALEIGH NC     CLOUDY    73  71  93 CALM      29.94F FOG
ATLANTA GA     MOCLDY    78  69  73 SW9       30.00R
NEW ORLEANS LA PTCLDY    79  73  82 S6        30.04S
OKLAHOMA CITY  CLOUDY    71  69  93 S7        29.94R
ALBUQUERQUE NM CLOUDY    72  57  59 S6        30.19R
SALT LAKE CITY MOCLDY    83  49  30 SE6       29.98R
LOS ANGELES CA PTCLDY    65  62  90 SW7       29.95R
BOISE ID       CLEAR     89  42  19 CALM      29.88R
SEATTLE WA     PTCLDY    83  51  33 N9        29.95S
$$

*** WEATHER ACROSS MANITOBA...SASKATCHEWAN AND ONTARIO ***
                ***ONTARIO***

CITY           SKY/WX    TMP DP  RH WIND       PRES   REMARKS
GERALDTON      LGT RAIN  57  57 100 S8        29.80F VSB 1
THUNDER BAY    CLOUDY    57  55  94 NE5       29.86R
SIOUX LOOKOUT  NOT AVBL
TORONTO        CLEAR     57  43  58 N10       30.00S
BIG TROUT LK   CLOUDY    61  59  94 NW12      29.66S
PICKLE LAKE    NOT AVBL
DRYDEN         MOCLDY    66  61  82 W8        29.82S
KENORA         NOT AVBL
$$
                *** MANITOBA***

CITY           SKY/WX    TMP DP  RH WIND       PRES   REMARKS
BRANDON        CLEAR     59  57  94 NW8       29.94S SMOKE
DAUPHIN        CLEAR     64  59  82 W5        29.91R FOG
ISLAND LAKE    PTCLDY    63  61  94 N6        29.79R
PILOT MOUND      N/A     61  59  94 NW5         N/A
THE PAS        CLOUDY    61  54  77 CALM      29.88S SMOKE
THOMPSON       PTCLDY    61  50  67 NE8       29.84R
WINNIPEG       CLEAR     63  63 100 W7        29.87S SMOKE
LYNN LAKE      CLEAR     59  48  67 W2        29.87S
CHURCHILL      MOCLDY    55  50  82 NW8       29.81R
GILLAM         CLEAR     61  57  88 N13       29.82R
$$
                ***SASKATCHEWAN***

CITY           SKY/WX    TMP DP  RH WIND       PRES   REMARKS
ESTEVAN        CLOUDY    63  61  94 NW3       30.00S SMOKE
KINDERSLEY     NOT AVBL
LLOYDMINSTER   CLEAR     68  55  64 S7        29.95F
PRINCE ALBERT  MOCLDY    63  59  88 CALM      29.93S
REGINA         PTCLDY    63  61  94 W2        30.00S SMOKE


USA.gov is the U.S. government's official web portal to all federal, state and local government web resources and services.